Weather History for K4M9 - November, 2013

Change the Weather History Date:

Monday, November 4, 2013

  Actual Average (KARG) Record (KARG)
Temperature  
Mean Temperature 52 °F -  
Max Temperature 59 °F 60 °F 82 °F (2003)
Min Temperature 44 °F 44 °F 32 °F (1997)
Degree Days  
Heating Degree Days 14    
Growing Degree Days 2 (Base 50)    
Moisture  
Dew Point 45 °F    
Average Humidity 80    
Maximum Humidity 100    
Minimum Humidity 59    
Precipitation  
Precipitation 0.03 in - - ()
Sea Level Pressure  
Sea Level Pressure 30.23 in    
Wind  
Wind Speed 8 mph (SSE)    
Max Wind Speed 18 mph    
Max Gust Speed 26 mph    
Visibility 9 miles    
Events Rain    
Averages and records for this station are not official NWS values.
T = Trace of Precipitation, MM = Missing Value Source: NWS Daily Summary

Daily Weather History Graph

Daily Weather History Graph

Search for Another Location

Airport or City:

Trip Planner

Search our weather history database for the weather conditions in past years. The results will help you decide how hot, cold, wet, or windy it might be!

Date:

Astronomy

Nov. 04, 2013 Rise Set
Actual Time 6:28 AM CST 5:02 PM CST
Civil Twilight 6:02 AM CST 5:29 PM CST
Nautical Twilight 5:31 AM CST 6:00 PM CST
Astronomical Twilight 5:01 AM CST 6:30 PM CST
Moon 7:37 AM CST (11/4) 6:09 PM CST (11/4)
Length of Visible Light 11h 27m
Length of Day
10h 33m
New Moon, 2% of the Moon is Illuminated
Nov 4
New Moon
Nov 9
First Quarter
Nov 17
Full
Nov 25
Last Quarter
Dec 2
New

Hourly Weather History & Observations

Time (CST) Temp. Windchill Dew Point Humidity Pressure Visibility Wind Dir Wind Speed Gust Speed Precip Events Conditions
12:15 AM 44.6 °F 41.4 °F 41.0 °F 87% 30.21 in 10.0 mi SSE 5.8 mph - N/A   Clear
12:35 AM 44.6 °F 40.2 °F 41.0 °F 87% 30.20 in 10.0 mi SE 8.1 mph - N/A   Clear
12:55 AM 46.4 °F 41.9 °F 39.2 °F 76% 30.20 in 10.0 mi SE 9.2 mph - N/A   Clear
1:15 AM 46.4 °F 42.9 °F 39.2 °F 76% 30.20 in 10.0 mi SE 6.9 mph - N/A   Clear
1:35 AM 46.4 °F 42.9 °F 41.0 °F 81% 30.20 in 10.0 mi SE 6.9 mph - N/A   Clear
1:55 AM 44.6 °F 40.2 °F 41.0 °F 87% 30.18 in 10.0 mi SE 8.1 mph - N/A   Clear
2:15 AM 44.6 °F 40.2 °F 39.2 °F 81% 30.19 in 10.0 mi SE 8.1 mph - N/A   Clear
2:35 AM 46.4 °F 42.4 °F 39.2 °F 76% 30.19 in 10.0 mi SE 8.1 mph - N/A   Clear
2:55 AM 44.6 °F 39.7 °F 39.2 °F 81% 30.18 in 10.0 mi SE 9.2 mph - N/A   Clear
3:15 AM 44.6 °F 40.7 °F 39.2 °F 81% 30.18 in 10.0 mi SE 6.9 mph - N/A   Clear
3:35 AM 44.6 °F 40.7 °F 39.2 °F 81% 30.18 in 10.0 mi SE 6.9 mph - N/A   Clear
3:55 AM 44.6 °F 41.4 °F 39.2 °F 81% 30.19 in 10.0 mi SSE 5.8 mph - N/A   Clear
4:15 AM 44.6 °F 40.7 °F 39.2 °F 81% 30.19 in 10.0 mi SE 6.9 mph - N/A   Clear
4:35 AM 44.6 °F 40.7 °F 39.2 °F 81% 30.21 in 10.0 mi SSE 6.9 mph - N/A   Clear
4:55 AM 44.6 °F 40.2 °F 41.0 °F 87% 30.19 in 10.0 mi SE 8.1 mph - N/A   Clear
5:15 AM 46.4 °F 45.2 °F 39.2 °F 76% 30.20 in 10.0 mi SSE 3.5 mph - N/A   Clear
5:35 AM 46.4 °F 43.5 °F 41.0 °F 81% 30.21 in 10.0 mi SSE 5.8 mph - N/A   Clear
5:55 AM 46.4 °F 42.4 °F 41.0 °F 81% 30.20 in 10.0 mi SE 8.1 mph - N/A   Clear
6:15 AM 46.4 °F 41.5 °F 41.0 °F 81% 30.19 in 10.0 mi SE 10.4 mph - N/A   Clear
6:35 AM 46.4 °F 43.5 °F 41.0 °F 81% 30.21 in 10.0 mi SSE 5.8 mph - N/A   Clear
6:55 AM 48.2 °F - 41.0 °F 76% 30.23 in 10.0 mi South 8.1 mph - N/A   Clear
7:15 AM 48.2 °F - 41.0 °F 76% 30.24 in 10.0 mi SSE 5.8 mph - N/A   Clear
7:35 AM 48.2 °F - 41.0 °F 76% 30.23 in 10.0 mi SSE 11.5 mph - N/A   Clear
7:55 AM 48.2 °F - 41.0 °F 76% 30.21 in 10.0 mi SSE 11.5 mph - N/A   Clear
8:15 AM 50.0 °F - 41.0 °F 71% 30.22 in 10.0 mi SSE 12.7 mph 18.4 mph N/A   Unknown
8:35 AM 50.0 °F - 41.0 °F 71% 30.22 in 10.0 mi SSE 11.5 mph - N/A   Unknown
8:55 AM 53.6 °F - 42.8 °F 67% 30.24 in 10.0 mi SSE 5.8 mph - N/A   Unknown
9:15 AM 55.4 °F - 42.8 °F 63% 30.24 in 10.0 mi South 15.0 mph 19.6 mph N/A   Unknown
9:35 AM 55.4 °F - 42.8 °F 63% 30.24 in 10.0 mi South 18.4 mph 24.2 mph N/A   Unknown
9:55 AM 57.2 °F - 44.6 °F 63% 30.23 in 10.0 mi South 16.1 mph - N/A   Unknown
10:15 AM 57.2 °F - 44.6 °F 63% 30.23 in 10.0 mi South 13.8 mph 20.7 mph N/A   Unknown
10:35 AM 57.2 °F - 44.6 °F 63% 30.22 in 10.0 mi South 12.7 mph 17.3 mph N/A   Unknown
10:55 AM 57.2 °F - 44.6 °F 63% 30.23 in 10.0 mi South 13.8 mph 21.9 mph N/A   Unknown
11:15 AM 59.0 °F - 44.6 °F 59% 30.23 in 10.0 mi South 18.4 mph 26.5 mph N/A   Unknown
11:35 AM 59.0 °F - 44.6 °F 59% 30.23 in 10.0 mi South 13.8 mph - N/A   Unknown
11:55 AM 59.0 °F - 44.6 °F 59% 30.23 in 10.0 mi South 12.7 mph - N/A   Unknown
12:15 PM 59.0 °F - 44.6 °F 59% 30.22 in 10.0 mi South 15.0 mph - N/A   Unknown
12:35 PM 59.0 °F - 44.6 °F 59% 30.22 in 10.0 mi South 15.0 mph 19.6 mph N/A   Unknown
12:55 PM 59.0 °F - 44.6 °F 59% 30.20 in 10.0 mi South 13.8 mph 18.4 mph N/A   Unknown
1:15 PM 59.0 °F - 46.4 °F 63% 30.21 in 10.0 mi SSW 11.5 mph - N/A   Unknown
1:35 PM 59.0 °F - 44.6 °F 59% 30.21 in 10.0 mi South 15.0 mph - N/A   Unknown
1:55 PM 59.0 °F - 46.4 °F 63% 30.22 in 10.0 mi South 13.8 mph - N/A   Unknown
2:15 PM 59.0 °F - 46.4 °F 63% 30.22 in 10.0 mi South 12.7 mph - N/A   Unknown
2:35 PM 57.2 °F - 46.4 °F 67% 30.22 in 10.0 mi South 10.4 mph - N/A   Clear
2:55 PM 57.2 °F - 46.4 °F 67% 30.22 in 10.0 mi South 5.8 mph - N/A   Clear
3:15 PM 55.4 °F - 48.2 °F 77% 30.23 in 8.0 mi South 10.4 mph - N/A   Clear
3:35 PM 55.4 °F - 48.2 °F 77% 30.24 in 7.0 mi South 8.1 mph - N/A Rain Light Rain
3:55 PM 55.4 °F - 50.0 °F 82% 30.23 in 8.0 mi SSE 4.6 mph - N/A Rain Light Rain
4:15 PM 53.6 °F - 50.0 °F 88% 30.24 in 8.0 mi SSE 4.6 mph - N/A   Clear
4:35 PM 53.6 °F - 50.0 °F 88% 30.23 in 6.0 mi SE 4.6 mph - N/A Rain Light Rain
4:55 PM 53.6 °F - 50.0 °F 88% 30.24 in 5.0 mi SE 5.8 mph - 0.01 in Rain Light Rain
5:15 PM 53.6 °F - 50.0 °F 88% 30.24 in 8.0 mi SSE 5.8 mph - N/A Rain Light Rain
5:35 PM 51.8 °F - 50.0 °F 94% 30.23 in 7.0 mi ESE 3.5 mph - N/A Rain Light Rain
5:55 PM 51.8 °F - 50.0 °F 94% 30.24 in 7.0 mi Calm Calm - 0.01 in Rain Light Rain
6:15 PM 51.8 °F - 50.0 °F 94% 30.25 in 8.0 mi Calm Calm - N/A Rain Light Rain
6:35 PM 51.8 °F - 50.0 °F 94% 30.25 in 7.0 mi NE 3.5 mph - N/A Rain Light Rain
6:55 PM 51.8 °F - 50.0 °F 94% 30.25 in 7.0 mi ENE 4.6 mph - N/A Rain Light Rain
7:15 PM 51.8 °F - 51.8 °F 100% 30.25 in 8.0 mi East 4.6 mph - N/A   Partly Cloudy
7:35 PM 51.8 °F - 51.8 °F 100% 30.25 in 9.0 mi Calm Calm - N/A   Scattered Clouds
7:55 PM 51.8 °F - 50.0 °F 94% 30.25 in 9.0 mi Calm Calm - N/A Rain Light Rain
8:15 PM 51.8 °F - 50.0 °F 94% 30.25 in 7.0 mi East 4.6 mph - N/A Rain Light Rain
8:35 PM 51.8 °F - 51.8 °F 100% 30.24 in 7.0 mi NE 3.5 mph - N/A Rain Light Rain
8:55 PM 51.8 °F - 51.8 °F 100% 30.26 in 10.0 mi Calm Calm - N/A   Clear
9:15 PM 51.8 °F - 50.0 °F 94% 30.26 in 7.0 mi Calm Calm - N/A Rain Light Rain
9:35 PM 51.8 °F - 50.0 °F 94% 30.27 in 6.0 mi Calm Calm - 0.01 in Rain Light Rain
9:55 PM 51.8 °F - 51.8 °F 100% 30.26 in 6.0 mi NE 3.5 mph - 0.01 in   Partly Cloudy
10:15 PM 51.8 °F - 51.8 °F 100% 30.26 in 7.0 mi ENE 4.6 mph - N/A   Scattered Clouds
10:35 PM 50.0 °F - 50.0 °F 100% 30.27 in 8.0 mi Calm Calm - N/A   Partly Cloudy
10:55 PM 50.0 °F - 50.0 °F 100% 30.26 in 7.0 mi Calm Calm - N/A   Clear
11:15 PM 51.8 °F - 51.8 °F 100% 30.27 in 7.0 mi Calm Calm - N/A   Clear
11:35 PM 50.0 °F - 50.0 °F 100% 30.26 in 7.0 mi North 4.6 mph - N/A   Clear
11:55 PM 50.0 °F - 50.0 °F 100% 30.25 in 8.0 mi NNE 3.5 mph - N/A   Clear